Location: Pine Mountain Observatory
(43.7910°N, 120.9377°W)
Time: 16:18:59
(UTC-07:00)

Courier 1B - All Passes

Search period start: 26 May 2019 00:00
Search period end: 05 June 2019 00:00
Orbit: 963 x 1209 km, 28.3° (Epoch: 25 May)

Date Brightness Start Highest point End Pass type
(mag) Time Alt. Az. Time Alt. Az. Time Alt. Az.
26 May - 06:25:21 10° SSW 06:29:07 16° SSE 06:32:49 10° SE daylight
26 May - 08:17:31 10° SW 08:22:02 20° S 08:26:32 10° SE daylight
26 May - 10:11:31 10° SW 10:14:55 15° SSW 10:18:20 10° SSE daylight
27 May - 05:32:29 10° SSW 05:35:39 14° SSE 05:38:47 10° SE daylight
27 May - 07:24:01 10° SW 07:28:34 20° S 07:33:03 10° SE daylight
27 May - 09:17:32 10° SW 09:21:28 17° SSW 09:25:24 10° SSE daylight
28 May - 04:40:04 10° S 04:42:12 12° SSE 04:44:18 10° SE visible
28 May - 06:30:35 10° SW 06:35:05 19° S 06:39:30 10° SE daylight
28 May - 08:23:43 10° SW 08:28:01 19° S 08:32:18 10° SE daylight
28 May - 10:20:16 10° SSW 10:20:49 10° SSW 10:21:23 10° SSW daylight
29 May - 05:37:15 10° SSW 05:41:36 18° S 05:45:51 10° SE daylight
29 May - 07:29:58 10° SW 07:34:34 20° S 07:39:03 10° SE daylight
29 May - 09:24:43 10° SW 09:27:25 13° SSW 09:30:05 10° S daylight
30 May - 04:44:02 10° SSW 04:48:07 16° SSE 04:52:04 10° SE visible
30 May - 06:36:19 10° SW 06:41:05 21° S 06:45:43 10° SE daylight
30 May - 08:30:23 10° SW 08:33:59 15° SSW 08:37:32 10° SSE daylight
31 May - 03:51:03 10° SSW 03:54:36 14° SSE 03:58:04 10° SE visible
31 May - 05:42:43 10° SW 05:47:35 21° S 05:52:17 10° SE daylight
31 May - 07:36:19 10° SW 07:40:32 18° SSW 07:44:39 10° SSE daylight
01 Jun - 02:58:28 10° S 03:01:05 12° SSE 03:03:40 10° SE visible
01 Jun - 04:49:11 10° SW 04:54:04 20° S 04:58:46 10° SE visible
01 Jun - 06:42:25 10° SW 06:47:04 20° S 06:51:34 10° SE daylight
01 Jun - 08:38:18 10° SW 08:39:52 11° SSW 08:41:25 10° S daylight
02 Jun - 03:55:46 10° SSW 04:00:32 19° S 04:05:07 10° SE visible
02 Jun - 05:48:35 10° SW 05:53:34 21° S 05:58:22 10° SE daylight
02 Jun - 07:43:16 10° SW 07:46:26 14° SSW 07:49:34 10° S daylight
03 Jun - 03:02:29 10° SSW 03:06:58 17° SSE 03:11:19 10° SE visible
03 Jun - 04:54:50 10° SW 05:00:02 22° S 05:05:02 10° SE daylight
03 Jun - 06:48:55 10° SW 06:53:00 17° SSW 06:56:58 10° SSE daylight
04 Jun - 02:09:26 10° SSW 02:13:25 15° SSE 02:17:17 10° SE visible
04 Jun - 04:01:09 10° SW 04:06:28 22° S 04:11:34 10° SE visible
04 Jun - 05:54:48 10° SW 05:59:31 19° SSW 06:04:03 10° SSE daylight
